Home > Weather > Emsdetten > Past weeks

Flag for Germany Weather for the Past 2 Weeks in Emsdetten, North Rhine-Westphalia, Germany

Now
36 °F

Light rain. Fog.


Feels Like: 29 °F
Forecast: 24 / 35 °F
Wind: 9 mph from Northeast

Location: Muenster / Osnabrueck

Current Time: Feb 14, 2016 at 11:36:09 AM

Latest Report: Feb 14, 2016 at 10:50 AM


Visibility: 3 mi

Pressure: 29.15 "Hg

Humidity: 93%

Dew point: 34 °F

Location of EmsdettenLocation

Historic Weather in Emsdetten — Graph

°F

Emsdetten Temperature Yesterday

Maximum temperature yesterday: 45 °F (at 1:50 PM)
Minimum temperature yesterday: 28 °F (at 3:20 AM)
Average temperature yesterday: 37 °F

High & Low Weather Summary for the Past Weeks

 TemperatureHumidityPressure
High54 °F (Feb 1, 3:50 PM)100% (Jan 31, 6:50 PM)30.27 "Hg (Jan 31, 6:50 PM)
Low28 °F (Feb 13, 3:20 AM)53% (Feb 13, 1:50 PM)28.77 "Hg (Feb 9, 5:50 PM)
Average43 °F83%29.65 "Hg
* Reported Jan 30 10:20 AM — Feb 14 10:20 AM, Emsdetten, Weather by CustomWeather, © 2016

Note: Actual official high and low records may vary slightly from our data, if they occured in-between our weather recording intervals... More about our weather records

Advertising

Emsdetten Weather History for the Previous 24 Hours

 ConditionsComfort  
Time TempWeatherWind HumidityBarometerVisibility
10:20 AM
Sun, Feb 14
34 °FLight rain. Partly sunny.9 mph93%29.15 "Hg4 mi
9:50 AM36 °FLight rain. Fog.10 mph93%29.12 "Hg3 mi
9:20 AM36 °FLight rain. Fog.9 mph93%29.12 "Hg2 mi
8:20 AM34 °FLight rain. Fog.8 mph100%29.09 "Hg2 mi
7:50 AM36 °FLight rain. Fog.8 mph93%29.09 "Hg2 mi
7:20 AM36 °FLight rain. Fog.6 mph93%29.09 "Hg2 mi
6:50 AM36 °FLight rain. Fog.6 mph93%29.09 "Hg3 mi
6:20 AM36 °FLight rain. Fog.7 mph93%29.06 "Hg3 mi
5:50 AM34 °FLight rain. Fog.7 mph100%29.06 "Hg3 mi
5:20 AM34 °FLight rain. Fog.7 mph100%29.06 "Hg3 mi
4:50 AM36 °FLight rain. Fog.9 mph93%29.06 "Hg3 mi
4:20 AM36 °FLight rain. Fog.9 mph93%29.06 "Hg3 mi
3:50 AM36 °FLight rain. Passing clouds.9 mph93%29.06 "Hg5 mi
3:20 AM36 °FLight rain. Passing clouds.8 mph93%29.06 "Hg5 mi
2:20 AM36 °FLight rain. Passing clouds.7 mph93%29.06 "Hg5 mi
1:50 AM36 °FLight rain. Passing clouds.7 mph93%29.06 "Hg5 mi
1:20 AM37 °FLight rain. Passing clouds.8 mph87%29.06 "Hg5 mi
12:50 AM37 °FLight rain. Partly cloudy.6 mph87%29.06 "Hg5 mi
12:20 AM37 °FLight rain. Partly cloudy.7 mph87%29.06 "Hg5 mi
11:50 PM
Sat, Feb 13
37 °FLight rain. Passing clouds.6 mph87%29.09 "HgN/A
11:20 PM37 °FLight rain. Passing clouds.7 mph81%29.09 "HgN/A
10:50 PM39 °FLight rain. Passing clouds.6 mph75%29.09 "HgN/A
10:20 PM39 °FPassing clouds.6 mph75%29.09 "HgN/A
9:50 PM39 °FLight rain. Partly cloudy.6 mph75%29.09 "HgN/A
9:20 PM39 °FLight rain. Passing clouds.6 mph75%29.12 "HgN/A
8:50 PM39 °FPassing clouds.6 mph75%29.12 "HgN/A
8:20 PM41 °FPassing clouds.5 mph70%29.12 "HgN/A
7:50 PM41 °FPartly cloudy.6 mph70%29.12 "HgN/A
7:20 PM41 °FPartly cloudy.3 mph61%29.15 "HgN/A
6:50 PM41 °FPassing clouds.3 mph61%29.15 "HgN/A
6:20 PM41 °FPassing clouds.3 mph61%29.15 "HgN/A
5:50 PM41 °FPassing clouds.5 mph61%29.15 "HgN/A
5:20 PM43 °FPassing clouds.6 mph57%29.15 "HgN/A
4:50 PM43 °FPassing clouds.6 mph57%29.18 "HgN/A
4:20 PM43 °FPassing clouds.6 mph57%29.18 "HgN/A
3:50 PM43 °FPassing clouds.8 mph53%29.18 "HgN/A
3:20 PM43 °FPassing clouds.9 mph53%29.18 "HgN/A
2:50 PM45 °FPassing clouds.9 mph53%29.21 "HgN/A
2:20 PM45 °FPassing clouds.8 mph53%29.21 "HgN/A
1:50 PM45 °FPassing clouds.8 mph53%29.24 "HgN/A
1:20 PM43 °FPassing clouds.8 mph61%29.24 "HgN/A
12:50 PM41 °FSunny.6 mph70%29.27 "Hg10 mi
12:20 PM41 °FPassing clouds.5 mph66%29.27 "HgN/A
11:50 AM39 °FPassing clouds.7 mph70%29.30 "HgN/A
11:20 AM39 °FPassing clouds.6 mph70%29.30 "HgN/A
Weather by CustomWeather, © 2016

See weather overviewHow to use our weather pages